Altus AFB, OK

12:47 AM CDT on October 23, 2019 (GMT -0500)
Altus Air Force Base

Weather History for KLTS - August, 2019

Change the Weather History Date:

Tuesday, August 20, 2019

  Actual Average Record
Temperature  
Mean Temperature 86 °F -  
Max Temperature 99 °F 94 °F 106 °F (2011)
Min Temperature 72 °F 70 °F 58 °F (2015)
Cooling Degree Days 20    
Growing Degree Days 36 (Base 50)    
Moisture  
Dew Point 67 °F    
Average Humidity 57    
Maximum Humidity 87    
Minimum Humidity 31    
Precipitation  
Precipitation 0.00 in - - ()
Sea Level Pressure  
Sea Level Pressure 29.94 in    
Wind  
Wind Speed 6 mph ()    
Max Wind Speed 13 mph    
Max Gust Speed -    
Visibility 10.0 miles    
Events      
Averages and records for this station are not official NWS values.
T = Trace of Precipitation, MM = Missing Value Source: Averaged Metar Reports

Daily Weather History Graph

Daily Weather History Graph

Search for Another Location

Airport or City:

Astronomy

Aug. 20, 2019 Rise Set
Actual Time 7:01 AM CDT 8:19 PM CDT
Civil Twilight 6:34 AM CDT 8:45 PM CDT
Nautical Twilight 6:03 AM CDT 9:16 PM CDT
Astronomical Twilight 5:30 AM CDT 9:49 PM CDT
Moon 11:20 PM CDT (8/20) 11:30 AM CDT (8/20)
Length of Visible Light 14h 10m
Length of Day
13h 17m
Waning Gibbous, 77% of the Moon is Illuminated
Aug 20
Waning Gibbous
Aug 23
Last Quarter
Aug 30
New
Sep 5
First Quarter
Sep 13
Full

Hourly Weather History & Observations

Time (CDT) Temp. Heat Index Dew Point Humidity Pressure Visibility Wind Dir Wind Speed Gust Speed Precip Events Conditions
12:56 AM 81.1 °F 83.1 °F 65.5 °F 59% 29.93 in 10.0 mi SSE 11.5 mph - N/A   Clear
2:56 AM 76.1 °F - 66.7 °F 73% 29.93 in 10.0 mi South 5.8 mph - N/A   Partly Cloudy
3:56 AM 75.6 °F - 67.5 °F 76% 29.93 in 10.0 mi Calm Calm - N/A   Partly Cloudy
4:56 AM 73.9 °F - 67.3 °F 80% 29.94 in 10.0 mi SE 5.8 mph - N/A   Clear
5:56 AM 73.0 °F - 67.1 °F 82% 29.95 in 10.0 mi Calm Calm - N/A   Clear
6:56 AM 72.0 °F - 67.8 °F 87% 29.95 in 10.0 mi SE 5.8 mph - N/A   Partly Cloudy
9:56 AM 84.2 °F 87.9 °F 68.7 °F 60% 29.99 in 10.0 mi South 8.1 mph - N/A   Partly Cloudy
10:56 AM 89.6 °F 94.7 °F 69.8 °F 52% 29.98 in 10.0 mi South 8.1 mph - N/A   Partly Cloudy
12:56 PM 95.2 °F 98.3 °F 66.2 °F 38% 29.98 in 10.0 mi South 8.1 mph - N/A   Clear
1:56 PM 98.4 °F 101.3 °F 65.1 °F 33% 29.95 in 10.0 mi SSE 9.2 mph - N/A   Partly Cloudy
2:56 PM 98.8 °F 100.8 °F 63.7 °F 31% 29.94 in 10.0 mi SSE 10.4 mph - N/A   Scattered Clouds
3:56 PM 99.0 °F 101.1 °F 63.9 °F 31% 29.92 in 10.0 mi South 11.5 mph - N/A   Scattered Clouds
4:56 PM 98.1 °F 101.2 °F 65.7 °F 34% 29.90 in 10.0 mi SSE 12.7 mph - N/A   Scattered Clouds
6:56 PM 95.9 °F 101.9 °F 69.6 °F 42% 29.88 in 10.0 mi SSE 8.1 mph - N/A   Clear
7:56 PM 86.7 °F 92.1 °F 71.1 °F 59% 29.88 in 10.0 mi South 8.1 mph - N/A   Clear
8:56 PM 82.2 °F 85.3 °F 68.4 °F 63% 29.91 in 10.0 mi SE 6.9 mph - N/A   Clear
9:56 PM 82.0 °F 83.9 °F 65.7 °F 57% 29.93 in 10.0 mi SSE 9.2 mph - N/A   Clear
10:56 PM 80.6 °F 82.4 °F 65.3 °F 59% 29.94 in 10.0 mi SSE 6.9 mph - N/A   Clear
11:56 PM 79.2 °F - 65.5 °F 63% 29.95 in 10.0 mi SE 10.4 mph - N/A   Clear